Regional Weather Roundup
Issued by NWS Cleveland, OH

Home | Current Version | Previous Version | Graphics & Text | Print | Product List | Glossary On
Versions: 1 2 3 4 5 6 7 8 9 10 11 12 13 14 15 16 17 18 19 20 21 22 23 24 25 26 27 28 29 30 31 32 33 34 35 36 37 38 39 40 41 42 43 44 45 46 47 48 49 50
000
ASUS41 KCLE 271610
RWRCLE
OHIO REGIONAL WEATHER ROUNDUP
NATIONAL WEATHER SERVICE CLEVELAND, OH
1100 AM EST SAT DEC 27 2014

NOTE: "FAIR" INDICATES FEW OR NO CLOUDS BELOW 12,000 FEET WITH NO
SIGNIFICANT WEATHER AND/OR OBSTRUCTIONS TO VISIBILITY.

OHZ001>008-015>018-024>027-034-035-043-044-271700-
   NORTHWEST OHIO

CITY           SKY/WX    TMP DP  RH WIND       PRES   REMARKS
DEFIANCE       CLOUDY    46  43  89 S12       30.09F
FINDLAY        CLOUDY    48  40  73 S13       30.10F
TOLEDO EXPRESS CLOUDY    44  41  89 SW13G20   30.09S
TOLEDO EXEC    LGT RAIN  46  39  76 SW17      30.10F
LIMA           CLOUDY    47  39  74 S15       30.12F
$$

OHZ009>014-019>023-028>033-038-089-271700-
   NORTHEAST OHIO

CITY           SKY/WX    TMP DP  RH WIND       PRES   REMARKS
CLE-HOPKINS    PTSUNNY   50  33  52 S12       30.16F
CLE-LAKEFRONT  CLOUDY    50  35  56 S12       30.12F
CUY CO. ARPT   PTSUNNY   50  39  66 S16       30.14F
LORAIN-ELYRIA  PTSUNNY   50  35  56 SW16G23   30.13F
ASHTABULA      CLOUDY    45  36  70 S7        30.17F
AKRON-CANTON   PTSUNNY   50  33  52 S10       30.17F
WOOSTER        SUNNY     48  34  58 SW12      30.16F
MANSFIELD      PTSUNNY   49  35  58 S15       30.15F
YOUNGSTOWN     PTSUNNY   44  33  65 S7        30.19F
$$

OHZ042-051>053-060>062-070>072-077>081-271700-
  SOUTHWEST OHIO

CITY           SKY/WX    TMP DP  RH WIND       PRES   REMARKS
CINC-COVINGTON CLOUDY    48  38  68 S8        30.19S
CINC-LUNKEN    CLOUDY    46  41  82 S7        30.21F
HAMILTON       CLOUDY    48  39  71 VRB6      30.20S
DAYTON         PTSUNNY   48  38  68 S15       30.14F
WRIGHT-PAT AFB PTSUNNY   49  38  64 S10       30.16F
DAYTON GENERAL CLOUDY    48  38  68 S12       30.16F
WILMINGTON     PTSUNNY   49  37  63 SW15      30.17F
$$

OHZ036-037-039>041-045>050-054>059-063>069-073>076-082>088-271700-
  CENTRAL AND SOUTHEAST OHIO

CITY           SKY/WX    TMP DP  RH WIND       PRES   REMARKS
COLUMBUS       CLOUDY    48  33  56 S8        30.18F
OSU AIRPORT    PTSUNNY   47  35  63 S8        30.17F
BOLTON FIELD   PTSUNNY   46  37  71 S8        30.18F
RICKENBACK AFB CLOUDY    47  35  63 S9        30.18F
NEWARK         PTSUNNY   49  35  58 S7        30.20F
MARION         CLOUDY    47  35  63 S14       30.16S
LANCASTER      CLOUDY    49  34  56 S6        30.21F
ZANESVILLE     CLOUDY    47  33  58 S8        30.21F
NEW PHILLY     SUNNY     50  33  52 S5        30.22S
$$



USA.gov is the U.S. government's official web portal to all federal, state and local government web resources and services.